This demonstration page uses our WeatherBlox Daily Observations layout. Learn more.

Left ArrowRight Arrow

39.29038, -76.61219

Hourly Observations for January 21, 2015

Temp ( °F °C ) Dew Point ( °F °C ) Humidity (%) Winds ( mph kmh ) Pressure ( in mb ) Visibility ( mi km ) Precip ( " mm )
12:54 am 00:54 undefined 37 2.8 29 -1.7 73 73 undefined N/A 30.07 1018 N/A 0.00 0.00
1:54 am 01:54 undefined 35 1.7 29 -1.7 78 78 undefined N/A 30.09 1019 N/A 0.00 0.00
2:54 am 02:54 undefined 35 1.7 29 -1.7 78 78 undefined N/A 30.09 1019 N/A 0.00 0.00
4:54 am 04:54 undefined 33 0.6 28 -2.2 82 82 undefined N/A 30.09 1019 N/A 0.00 0.00
5:54 am 05:54 undefined 34 1.1 29 -1.7 82 82 undefined N/A 30.10 1019 N/A 0.00 0.00
6:54 am 06:54 undefined 34 1.1 27 -2.8 76 76 undefined N/A 30.10 1019 N/A 0.00 0.00
7:54 am 07:54 undefined 34 1.1 25 -3.9 70 70 undefined N/A 30.12 1020 N/A 0.00 0.00
8:54 am 08:54 undefined 34 1.1 24 -4.4 67 67 undefined N/A 30.12 1020 N/A 0.00 0.00
9:54 am 09:54 undefined 34 1.1 21 -6.1 59 59 undefined N/A 30.16 1021 N/A 0.00 0.00
10:54 am 10:54 undefined 34 1.1 22 -5.6 61 61 undefined N/A 30.16 1021 N/A 0.00 0.00
11:54 am 11:54 undefined 35 1.7 23 -5 61 61 undefined N/A 30.17 1022 N/A 0.00 0.00
12:54 pm 12:54 undefined 32 0 28 -2.2 85 85 undefined N/A 30.12 1020 N/A 0.02 0.51
1:54 pm 13:54 undefined 31 -0.6 28 -2.2 89 89 undefined N/A 30.11 1020 N/A 0.03 0.76
2:54 pm 14:54 undefined 31 -0.6 29 -1.7 92 92 undefined N/A 30.11 1020 N/A 0.05 1.27
3:54 pm 15:54 undefined 30 -1.1 28 -2.2 92 92 undefined N/A 30.10 1019 N/A 0.02 0.51
4:54 pm 16:54 undefined 30 -1.1 27 -2.8 88 88 undefined N/A 30.11 1020 N/A 0.00 0.00
5:54 pm 17:54 undefined 30 -1.1 27 -2.8 88 88 undefined N/A 30.14 1021 N/A 0.00 0.00
6:54 pm 18:54 undefined 30 -1.1 27 -2.8 88 88 undefined N/A 30.15 1021 N/A 0.00 0.00
7:54 pm 19:54 undefined 30 -1.1 27 -2.8 88 88 undefined N/A 30.16 1021 N/A 0.00 0.00
8:54 pm 20:54 undefined 30 -1.1 27 -2.8 88 88 undefined N/A 30.16 1021 N/A 0.00 0.00
9:54 pm 21:54 undefined 30 -1.1 28 -2.2 92 92 undefined N/A 30.17 1022 N/A 0.00 0.00
10:54 pm 22:54 undefined 30 -1.1 28 -2.2 92 92 undefined N/A 30.17 1022 N/A 0.00 0.00
11:54 pm 23:54 undefined 31 -0.6 28 -2.2 89 89 undefined N/A 30.18 1022 N/A 0.00 0.00

Powered by AerisWeather